Location: Newark
(35.4036°N, 80.4356°W)
Time: 11:06:23
(UTC+00:00)

Tiangong 2 - Visible Passes

Search period start: 16 July 2019 00:00
Search period end: 26 July 2019 00:00
Orbit: 378 x 386 km, 42.8° (Epoch: 16 July)

Date Brightness Start Highest point End Pass type
(mag) Time Alt. Az. Time Alt. Az. Time Alt. Az.
16 Jul 3.5 02:11:59 10° NW 02:14:24 20° N 02:16:50 10° NE visible
16 Jul 4.4 03:48:38 10° NW 03:49:02 13° NW 03:49:02 13° NW visible
17 Jul 3.5 01:11:24 10° NW 01:13:51 21° N 01:16:18 10° NE visible
17 Jul 2.8 02:48:24 10° NW 02:51:08 27° NNE 02:51:13 27° NNE visible
18 Jul 3.3 01:48:05 10° NW 01:50:36 22° N 01:53:08 10° ENE visible
18 Jul 3.8 03:24:34 10° WNW 03:25:33 18° NW 03:25:33 18° NW visible
19 Jul 2.1 02:24:18 10° NW 02:27:14 37° NNE 02:27:43 34° NE visible
20 Jul 2.8 01:24:02 10° NW 01:26:46 26° NNE 01:29:29 10° ENE visible
20 Jul 3.1 03:00:32 10° WNW 03:02:03 26° WNW 03:02:03 26° WNW visible
21 Jul 1.3 02:00:11 10° WNW 02:03:17 59° NNE 02:04:16 37° E visible
22 Jul 2.2 00:59:55 10° NW 01:02:51 36° NNE 01:05:46 10° E visible
22 Jul 2.6 02:36:37 10° WNW 02:38:39 29° WSW 02:38:39 29° WSW visible
23 Jul 1.0 01:36:06 10° WNW 01:39:14 77° SSW 01:40:56 24° SE visible
24 Jul 3.0 02:12:59 10° W 02:15:19 19° SW 02:15:26 19° SW visible
25 Jul 2.0 01:12:09 10° WNW 01:15:06 39° SSW 01:17:48 11° SE visible
